Time,TemperatureF,DewpointF,PressureIn,WindDirection,WindDirectionDegrees,WindSpeedMPH,WindSpeedGustMPH,Humidity,HourlyPrecipIn,Conditions,Clouds,dailyrainin,SoftwareType,DateUTC
2013-12-26 00:00:00,60.6,-10.7,30.22,WNW,292,9.9,15.5,5,0.00,,,0.00,VISReader,2013-12-26 07:00:00,
2013-12-26 00:05:00,60.3,-10.9,30.22,NW,315,10.4,12.5,5,0.00,,,0.00,VISReader,2013-12-26 07:05:00,
2013-12-26 00:11:00,60.1,-11.0,30.22,WNW,292,11.4,13.5,5,0.00,,,0.00,VISReader,2013-12-26 07:11:00,
2013-12-26 00:16:00,60.3,-10.9,30.22,WNW,292,13.5,15.0,5,0.00,,,0.00,VISReader,2013-12-26 07:16:00,
2013-12-26 00:21:00,60.6,-10.7,30.22,NNW,337,11.4,15.5,5,0.00,,,0.00,VISReader,2013-12-26 07:21:00,
2013-12-26 00:26:00,60.6,-10.7,30.21,WNW,292,10.4,16.6,5,0.00,,,0.00,VISReader,2013-12-26 07:26:00,
2013-12-26 00:31:00,60.4,-10.8,30.21,NW,315,13.0,16.6,5,0.00,,,0.00,VISReader,2013-12-26 07:31:00,
2013-12-26 00:36:00,60.4,-10.8,30.21,NNW,337,12.5,15.5,5,0.00,,,0.00,VISReader,2013-12-26 07:36:00,
2013-12-26 00:44:00,59.7,-11.3,30.21,NNW,337,14.0,14.0,5,0.00,,,0.00,VISReader,2013-12-26 07:44:00,
2013-12-26 00:49:00,60.3,-10.9,30.21,NW,315,13.0,15.5,5,0.00,,,0.00,VISReader,2013-12-26 07:49:00,
2013-12-26 00:54:00,60.4,-10.8,30.21,NW,315,13.0,16.1,5,0.00,,,0.00,VISReader,2013-12-26 07:54:00,
2013-12-26 01:00:00,60.3,-10.9,30.21,NW,315,13.0,16.1,5,0.00,,,0.00,VISReader,2013-12-26 08:00:00,
2013-12-26 01:05:00,60.1,-11.0,30.21,NNW,337,10.9,14.5,5,0.00,,,0.00,VISReader,2013-12-26 08:05:00,
2013-12-26 01:10:00,60.4,-15.2,30.21,North,360,16.1,17.6,4,0.00,,,0.00,VISReader,2013-12-26 08:10:00,
2013-12-26 01:19:00,60.3,-15.3,30.20,NW,315,13.0,17.6,4,0.00,,,0.00,VISReader,2013-12-26 08:19:00,
2013-12-26 01:24:00,60.3,-15.3,30.20,NW,315,15.0,16.6,4,0.00,,,0.00,VISReader,2013-12-26 08:24:00,
2013-12-26 01:29:00,60.4,-15.2,30.21,NW,315,15.5,16.6,4,0.00,,,0.00,VISReader,2013-12-26 08:29:00,
2013-12-26 01:34:00,60.3,-15.3,30.21,NW,315,17.1,17.1,4,0.00,,,0.00,VISReader,2013-12-26 08:34:00,
2013-12-26 01:39:00,60.1,-15.5,30.20,NW,315,15.0,17.1,4,0.00,,,0.00,VISReader,2013-12-26 08:39:00,
2013-12-26 01:45:00,60.1,-15.5,30.20,NNW,337,13.5,16.1,4,0.00,,,0.00,VISReader,2013-12-26 08:45:00,
2013-12-26 01:50:00,60.1,-15.5,30.20,North,360,12.5,17.1,4,0.00,,,0.00,VISReader,2013-12-26 08:50:00,
2013-12-26 01:55:00,59.7,-15.7,30.20,West,270,13.0,17.6,4,0.00,,,0.00,VISReader,2013-12-26 08:55:00,
2013-12-26 02:00:00,59.7,-15.7,30.20,NW,315,14.0,17.6,4,0.00,,,0.00,VISReader,2013-12-26 09:00:00,
2013-12-26 02:05:00,59.7,-15.7,30.21,NW,315,14.5,15.5,4,0.00,,,0.00,VISReader,2013-12-26 09:05:00,
2013-12-26 02:10:00,59.7,-15.7,30.21,NW,315,14.0,16.6,4,0.00,,,0.00,VISReader,2013-12-26 09:10:00,
2013-12-26 02:15:00,59.7,-15.7,30.21,North,360,13.0,19.1,4,0.00,,,0.00,VISReader,2013-12-26 09:15:00,
2013-12-26 02:20:00,59.5,-15.9,30.21,NNW,337,11.9,19.1,4,0.00,,,0.00,VISReader,2013-12-26 09:20:00,
2013-12-26 02:25:00,59.5,-15.9,30.21,North,360,11.9,17.1,4,0.00,,,0.00,VISReader,2013-12-26 09:25:00,
2013-12-26 02:31:00,59.7,-15.7,30.21,WNW,292,13.5,17.1,4,0.00,,,0.00,VISReader,2013-12-26 09:31:00,
2013-12-26 02:36:00,59.7,-15.7,30.21,NW,315,12.5,18.1,4,0.00,,,0.00,VISReader,2013-12-26 09:36:00,
2013-12-26 02:41:00,59.4,-15.9,30.21,NNW,337,15.5,18.1,4,0.00,,,0.00,VISReader,2013-12-26 09:41:00,
2013-12-26 02:46:00,59.2,-16.1,30.21,West,270,14.5,16.6,4,0.00,,,0.00,VISReader,2013-12-26 09:46:00,
2013-12-26 02:51:00,59.0,-16.2,30.21,NNE,22,10.9,16.6,4,0.00,,,0.00,VISReader,2013-12-26 09:51:00,
2013-12-26 02:56:00,59.0,-16.2,30.21,NW,315,13.0,16.1,4,0.00,,,0.00,VISReader,2013-12-26 09:56:00,
2013-12-26 03:01:00,59.0,-16.2,30.21,WNW,292,15.5,16.1,4,0.00,,,0.00,VISReader,2013-12-26 10:01:00,
2013-12-26 03:06:00,58.8,-16.4,30.21,WNW,292,10.4,16.1,4,0.00,,,0.00,VISReader,2013-12-26 10:06:00,
2013-12-26 03:11:00,58.8,-16.4,30.21,NNW,337,11.9,16.1,4,0.00,,,0.00,VISReader,2013-12-26 10:11:00,
2013-12-26 03:17:00,58.5,-16.6,30.21,WNW,292,12.5,16.1,4,0.00,,,0.00,VISReader,2013-12-26 10:17:00,
2013-12-26 03:22:00,58.1,-12.5,30.21,NNE,22,10.4,14.0,5,0.00,,,0.00,VISReader,2013-12-26 10:22:00,
2013-12-26 03:27:00,58.3,-12.3,30.21,WNW,292,14.5,14.5,5,0.00,,,0.00,VISReader,2013-12-26 10:27:00,
2013-12-26 03:36:00,58.1,-12.5,30.21,NNW,337,12.5,14.5,5,0.00,,,0.00,VISReader,2013-12-26 10:36:00,
2013-12-26 03:41:00,57.6,-9.2,30.21,North,360,9.9,15.0,6,0.00,,,0.00,VISReader,2013-12-26 10:41:00,
2013-12-26 03:46:00,57.6,-9.2,30.21,NNW,337,10.9,15.0,6,0.00,,,0.00,VISReader,2013-12-26 10:46:00,
2013-12-26 03:51:00,57.4,-9.3,30.21,NW,315,13.0,14.5,6,0.00,,,0.00,VISReader,2013-12-26 10:51:00,
2013-12-26 03:56:00,57.4,-9.3,30.21,NW,315,14.5,14.5,6,0.00,,,0.00,VISReader,2013-12-26 10:56:00,
2013-12-26 04:02:00,57.4,-9.3,30.21,NNW,337,13.5,14.5,6,0.00,,,0.00,VISReader,2013-12-26 11:02:00,
2013-12-26 04:07:00,57.0,-6.5,30.21,NW,315,9.9,15.5,7,0.00,,,0.00,VISReader,2013-12-26 11:07:00,
2013-12-26 04:13:00,56.7,-6.7,30.21,NNW,337,9.4,15.5,7,0.00,,,0.00,VISReader,2013-12-26 11:13:00,
2013-12-26 04:18:00,56.3,-4.2,30.21,West,270,11.4,12.5,8,0.00,,,0.00,VISReader,2013-12-26 11:18:00,
2013-12-26 04:23:00,56.3,-4.2,30.21,North,360,9.4,11.9,8,0.00,,,0.00,VISReader,2013-12-26 11:23:00,
2013-12-26 04:28:00,56.1,-4.4,30.22,SW,225,11.4,11.9,8,0.00,,,0.00,VISReader,2013-12-26 11:28:00,
2013-12-26 04:33:00,56.1,-4.4,30.22,NNW,337,8.9,11.9,8,0.00,,,0.00,VISReader,2013-12-26 11:33:00,
2013-12-26 04:38:00,56.1,-4.4,30.21,WNW,292,9.9,11.9,8,0.00,,,0.00,VISReader,2013-12-26 11:38:00,
2013-12-26 04:43:00,55.9,-4.5,30.21,WNW,292,9.4,11.9,8,0.00,,,0.00,VISReader,2013-12-26 11:43:00,
2013-12-26 04:48:00,55.6,-2.3,30.21,NNW,337,9.4,10.4,9,0.00,,,0.00,VISReader,2013-12-26 11:48:00,
2013-12-26 04:53:00,55.4,-0.2,30.21,WNW,292,8.3,11.4,10,0.00,,,0.00,VISReader,2013-12-26 11:53:00,
2013-12-26 04:59:00,55.4,-0.2,30.21,WNW,292,8.3,11.4,10,0.00,,,0.00,VISReader,2013-12-26 11:59:00,
2013-12-26 05:04:00,55.2,-0.4,30.22,NNW,337,9.4,11.4,10,0.00,,,0.00,VISReader,2013-12-26 12:04:00,
2013-12-26 05:09:00,55.2,-0.4,30.22,NNW,337,8.3,11.4,10,0.00,,,0.00,VISReader,2013-12-26 12:09:00,
2013-12-26 05:14:00,55.0,-0.5,30.22,NNW,337,8.9,10.9,10,0.00,,,0.00,VISReader,2013-12-26 12:14:00,
2013-12-26 05:19:00,55.0,-0.5,30.21,WSW,247,8.9,10.9,10,0.00,,,0.00,VISReader,2013-12-26 12:19:00,
2013-12-26 05:24:00,55.2,-0.4,30.21,NW,315,11.4,12.5,10,0.00,,,0.00,VISReader,2013-12-26 12:24:00,
2013-12-26 05:29:00,55.4,-0.2,30.21,NNW,337,12.5,12.5,10,0.00,,,0.00,VISReader,2013-12-26 12:29:00,
2013-12-26 05:37:00,55.4,-0.2,30.21,NW,315,12.5,12.5,10,0.00,,,0.00,VISReader,2013-12-26 12:37:00,
2013-12-26 05:42:00,55.4,-0.2,30.21,NNE,22,8.9,12.5,10,0.00,,,0.00,VISReader,2013-12-26 12:42:00,
2013-12-26 05:47:00,55.4,-0.2,30.21,West,270,9.4,12.5,10,0.00,,,0.00,VISReader,2013-12-26 12:47:00,
2013-12-26 05:53:00,55.4,-0.2,30.22,NNW,337,10.4,11.9,10,0.00,,,0.00,VISReader,2013-12-26 12:53:00,
2013-12-26 05:58:00,55.4,-0.2,30.22,NNW,337,8.3,11.9,10,0.00,,,0.00,VISReader,2013-12-26 12:58:00,
2013-12-26 05:59:00,55.4,-0.2,30.22,NNW,337,8.9,11.9,10,0.00,,,0.00,VISReader,2013-12-26 12:59:00,
2013-12-26 06:04:00,55.0,-0.5,30.22,NNW,337,11.9,11.9,10,0.00,,,0.00,VISReader,2013-12-26 13:04:00,
2013-12-26 06:09:00,52.3,-2.6,30.22,West,270,10.4,11.9,10,0.00,,,0.00,VISReader,2013-12-26 13:09:00,
2013-12-26 06:19:00,54.9,-0.6,30.22,NNW,337,8.3,11.9,10,0.00,,,0.00,VISReader,2013-12-26 13:19:00,
2013-12-26 06:25:00,54.7,-0.8,30.22,NW,315,10.9,11.4,10,0.00,,,0.00,VISReader,2013-12-26 13:25:00,
2013-12-26 06:30:00,54.7,-0.8,30.21,WNW,292,10.9,11.4,10,0.00,,,0.00,VISReader,2013-12-26 13:30:00,
2013-12-26 06:35:00,54.5,-0.9,30.21,West,270,9.9,11.4,10,0.00,,,0.00,VISReader,2013-12-26 13:35:00,
2013-12-26 06:40:00,55.0,-0.5,30.21,NW,315,9.4,11.9,10,0.00,,,0.00,VISReader,2013-12-26 13:40:00,
2013-12-26 06:45:00,54.1,-1.2,30.21,North,360,10.9,11.9,10,0.00,,,0.00,VISReader,2013-12-26 13:45:00,
2013-12-26 06:50:00,54.7,-0.8,30.22,WNW,292,14.5,14.5,10,0.00,,,0.00,VISReader,2013-12-26 13:50:00,
2013-12-26 06:55:00,54.7,-0.8,30.22,WNW,292,13.0,14.5,10,0.00,,,0.00,VISReader,2013-12-26 13:55:00,
2013-12-26 07:00:00,54.7,-0.8,30.22,NW,315,10.9,13.5,10,0.00,,,0.00,VISReader,2013-12-26 14:00:00,
2013-12-26 07:06:00,54.7,-0.8,30.22,NNW,337,8.3,13.5,10,0.00,,,0.00,VISReader,2013-12-26 14:06:00,
2013-12-26 07:11:00,54.3,-1.1,30.22,NW,315,8.9,11.9,10,0.00,,,0.00,VISReader,2013-12-26 14:11:00,
2013-12-26 07:20:00,54.3,-1.1,30.22,NW,315,9.4,10.9,10,0.00,,,0.00,VISReader,2013-12-26 14:20:00,
2013-12-26 07:25:00,54.5,-0.9,30.22,NNW,337,11.4,13.5,10,0.00,,,0.00,VISReader,2013-12-26 14:25:00,
2013-12-26 07:30:00,54.7,-0.8,30.22,WNW,292,10.9,14.0,10,0.00,,,0.00,VISReader,2013-12-26 14:30:00,
2013-12-26 07:35:00,54.3,-1.1,30.22,WNW,292,13.5,14.0,10,0.00,,,0.00,VISReader,2013-12-26 14:35:00,
2013-12-26 07:40:00,54.5,-0.9,30.23,NNW,337,13.0,15.5,10,0.00,,,0.00,VISReader,2013-12-26 14:40:00,
2013-12-26 07:46:00,54.9,-0.6,30.23,WNW,292,14.0,16.1,10,0.00,,,0.00,VISReader,2013-12-26 14:46:00,
2013-12-26 07:51:00,55.2,-0.4,30.23,WNW,292,13.5,16.6,10,0.00,,,0.00,VISReader,2013-12-26 14:51:00,
2013-12-26 07:56:00,55.2,-0.4,30.23,NW,315,15.0,16.6,10,0.00,,,0.00,VISReader,2013-12-26 14:56:00,
2013-12-26 08:01:00,55.6,-0.1,30.23,NW,315,11.9,18.1,10,0.00,,,0.00,VISReader,2013-12-26 15:01:00,
2013-12-26 08:06:00,55.8,-2.1,30.23,WNW,292,15.0,18.1,9,0.00,,,0.00,VISReader,2013-12-26 15:06:00,
2013-12-26 08:15:00,55.9,-2.1,30.23,WNW,292,17.1,17.1,9,0.00,,,0.00,VISReader,2013-12-26 15:15:00,
2013-12-26 08:20:00,56.5,-1.6,30.23,West,270,11.4,17.1,9,0.00,,,0.00,VISReader,2013-12-26 15:20:00,
2013-12-26 08:25:00,57.0,-3.7,30.23,NW,315,13.5,15.0,8,0.00,,,0.00,VISReader,2013-12-26 15:25:00,
2013-12-26 08:30:00,57.4,-3.4,30.24,WNW,292,13.5,15.0,8,0.00,,,0.00,VISReader,2013-12-26 15:30:00,
2013-12-26 08:35:00,57.7,-5.9,30.24,WNW,292,13.0,15.0,7,0.00,,,0.00,VISReader,2013-12-26 15:35:00,
2013-12-26 08:40:00,58.1,-5.6,30.24,WNW,292,10.4,15.0,7,0.00,,,0.00,VISReader,2013-12-26 15:40:00,
2013-12-26 08:46:00,58.6,-8.4,30.24,NW,315,11.9,14.0,6,0.00,,,0.00,VISReader,2013-12-26 15:46:00,
2013-12-26 08:51:00,59.2,-8.0,30.24,NW,315,13.0,14.0,6,0.00,,,0.00,VISReader,2013-12-26 15:51:00,
2013-12-26 08:56:00,59.4,-7.9,30.24,North,360,8.9,14.0,6,0.00,,,0.00,VISReader,2013-12-26 15:56:00,
2013-12-26 09:01:00,59.7,-7.6,30.24,WSW,247,4.7,12.5,6,0.00,,,0.00,VISReader,2013-12-26 16:01:00,
2013-12-26 09:06:00,60.6,-7.0,30.25,NE,45,3.7,8.3,6,0.00,,,0.00,VISReader,2013-12-26 16:06:00,
2013-12-26 09:11:00,61.0,-10.4,30.25,North,360,5.8,7.8,5,0.00,,,0.00,VISReader,2013-12-26 16:11:00,
2013-12-26 09:16:00,61.3,-10.2,30.25,NE,45,5.3,7.8,5,0.00,,,0.00,VISReader,2013-12-26 16:16:00,
2013-12-26 09:22:00,61.7,-9.9,30.25,NE,45,4.2,7.3,5,0.00,,,0.00,VISReader,2013-12-26 16:22:00,
2013-12-26 09:27:00,61.7,-14.3,30.25,SW,225,7.8,7.8,4,0.00,,,0.00,VISReader,2013-12-26 16:27:00,
2013-12-26 09:32:00,62.1,-14.1,30.25,NW,315,6.8,10.9,4,0.00,,,0.00,VISReader,2013-12-26 16:32:00,
2013-12-26 09:37:00,62.1,-14.1,30.25,WNW,292,7.8,10.9,4,0.00,,,0.00,VISReader,2013-12-26 16:37:00,
2013-12-26 09:42:00,62.6,-13.7,30.26,NNW,337,6.8,8.9,4,0.00,,,0.00,VISReader,2013-12-26 16:42:00,
2013-12-26 09:47:00,62.6,-13.7,30.26,North,360,7.3,8.3,4,0.00,,,0.00,VISReader,2013-12-26 16:47:00,
2013-12-26 09:52:00,63.0,-13.4,30.27,NE,45,7.3,8.9,4,0.00,,,0.00,VISReader,2013-12-26 16:52:00,
2013-12-26 09:58:00,63.1,-13.4,30.27,West,270,8.9,9.4,4,0.00,,,0.00,VISReader,2013-12-26 16:58:00,
2013-12-26 10:03:00,63.1,-13.4,30.27,NW,315,7.3,10.4,4,0.00,,,0.00,VISReader,2013-12-26 17:03:00,
2013-12-26 10:08:00,63.7,-13.0,30.27,NW,315,15.5,15.5,4,0.00,,,0.00,VISReader,2013-12-26 17:08:00,
2013-12-26 10:13:00,63.7,-13.0,30.27,NW,315,10.9,15.5,4,0.00,,,0.00,VISReader,2013-12-26 17:13:00,
2013-12-26 10:18:00,63.7,-13.0,30.27,NNE,22,8.9,15.5,4,0.00,,,0.00,VISReader,2013-12-26 17:18:00,
2013-12-26 10:23:00,64.4,-18.1,30.27,WNW,292,10.9,15.5,3,0.00,,,0.00,VISReader,2013-12-26 17:23:00,
2013-12-26 10:29:00,64.6,-18.0,30.26,NW,315,9.4,15.5,3,0.00,,,0.00,VISReader,2013-12-26 17:29:00,
2013-12-26 10:34:00,65.3,-17.5,30.26,North,360,12.5,14.0,3,0.00,,,0.00,VISReader,2013-12-26 17:34:00,
2013-12-26 10:39:00,65.8,-24.9,30.26,West,270,11.4,16.6,2,0.00,,,0.00,VISReader,2013-12-26 17:39:00,
2013-12-26 10:44:00,66.0,-24.7,30.26,NNW,337,13.5,16.6,2,0.00,,,0.00,VISReader,2013-12-26 17:44:00,
2013-12-26 10:49:00,66.0,-24.7,30.26,WNW,292,17.6,17.6,2,0.00,,,0.00,VISReader,2013-12-26 17:49:00,
2013-12-26 10:54:00,66.9,-36.7,30.26,North,360,11.4,17.6,1,0.00,,,0.00,VISReader,2013-12-26 17:54:00,
2013-12-26 10:59:00,67.1,-36.6,30.26,NE,45,11.9,14.0,1,0.00,,,0.00,VISReader,2013-12-26 17:59:00,
2013-12-26 11:05:00,67.3,-36.4,30.27,NNW,337,9.4,14.5,1,0.00,,,0.00,VISReader,2013-12-26 18:05:00,
2013-12-26 11:10:00,67.3,-36.4,30.27,NNW,337,11.9,14.5,1,0.00,,,0.00,VISReader,2013-12-26 18:10:00,
2013-12-26 11:15:00,67.3,-36.4,30.27,WSW,247,8.3,13.0,1,0.00,,,0.00,VISReader,2013-12-26 18:15:00,
2013-12-26 11:21:00,67.3,-36.4,30.27,NNW,337,9.4,12.5,1,0.00,,,0.00,VISReader,2013-12-26 18:21:00,
2013-12-26 11:26:00,67.3,-36.4,30.26,West,270,7.8,13.5,1,0.00,,,0.00,VISReader,2013-12-26 18:26:00,
2013-12-26 11:31:00,67.3,-36.4,30.26,NNE,22,7.3,13.5,1,0.00,,,0.00,VISReader,2013-12-26 18:31:00,
2013-12-26 11:37:00,67.3,-36.4,30.26,North,360,9.4,11.9,1,0.00,,,0.00,VISReader,2013-12-26 18:37:00,
2013-12-26 11:42:00,67.3,-36.4,30.25,North,360,10.9,11.9,1,0.00,,,0.00,VISReader,2013-12-26 18:42:00,
2013-12-26 11:48:00,67.3,-36.4,30.25,NNW,337,12.5,14.0,1,0.00,,,0.00,VISReader,2013-12-26 18:48:00,
2013-12-26 11:53:00,67.3,-36.4,30.25,ENE,67,8.9,14.0,1,0.00,,,0.00,VISReader,2013-12-26 18:53:00,
2013-12-26 11:58:00,67.3,-36.4,30.25,ENE,67,10.4,13.5,1,0.00,,,0.00,VISReader,2013-12-26 18:58:00,
2013-12-26 12:04:00,67.3,-36.4,30.24,WNW,292,8.3,15.0,1,0.00,,,0.00,VISReader,2013-12-26 19:04:00,
2013-12-26 12:09:00,67.3,-36.4,30.24,NW,315,17.6,17.6,1,0.00,,,0.00,VISReader,2013-12-26 19:09:00,
2013-12-26 12:15:00,67.3,-36.4,30.24,NW,315,9.4,18.6,1,0.00,,,0.00,VISReader,2013-12-26 19:15:00,
2013-12-26 12:24:00,67.3,-36.4,30.24,WNW,292,17.6,17.6,1,0.00,,,0.00,VISReader,2013-12-26 19:24:00,
2013-12-26 12:29:00,67.3,-36.4,30.23,WNW,292,9.4,17.6,1,0.00,,,0.00,VISReader,2013-12-26 19:29:00,
2013-12-26 12:34:00,67.3,-36.4,30.23,WNW,292,14.0,17.6,1,0.00,,,0.00,VISReader,2013-12-26 19:34:00,
2013-12-26 12:40:00,67.3,-36.4,30.22,NNW,337,9.9,17.6,1,0.00,,,0.00,VISReader,2013-12-26 19:40:00,
2013-12-26 12:45:00,67.3,-36.4,30.22,NNW,337,15.0,15.0,1,0.00,,,0.00,VISReader,2013-12-26 19:45:00,
2013-12-26 12:50:00,67.3,-36.4,30.21,NE,45,13.0,15.5,1,0.00,,,0.00,VISReader,2013-12-26 19:50:00,
2013-12-26 12:55:00,67.3,-36.4,30.21,NNE,22,11.4,16.1,1,0.00,,,0.00,VISReader,2013-12-26 19:55:00,
2013-12-26 13:01:00,67.3,-36.4,30.21,North,360,16.1,16.1,1,0.00,,,0.00,VISReader,2013-12-26 20:01:00,
2013-12-26 13:06:00,67.3,-36.4,30.20,NNW,337,11.9,17.1,1,0.00,,,0.00,VISReader,2013-12-26 20:06:00,
2013-12-26 13:12:00,67.3,-36.4,30.20,NE,45,14.5,17.1,1,0.00,,,0.00,VISReader,2013-12-26 20:12:00,
2013-12-26 13:17:00,67.3,-36.4,30.20,NNE,22,14.0,16.1,1,0.00,,,0.00,VISReader,2013-12-26 20:17:00,
2013-12-26 13:22:00,67.3,-36.4,30.20,East,90,10.9,16.1,1,0.00,,,0.00,VISReader,2013-12-26 20:22:00,
2013-12-26 13:28:00,67.3,-36.4,30.19,NNE,22,9.4,17.1,1,0.00,,,0.00,VISReader,2013-12-26 20:28:00,
2013-12-26 13:33:00,67.3,-36.4,30.19,NE,45,14.5,17.1,1,0.00,,,0.00,VISReader,2013-12-26 20:33:00,
2013-12-26 13:38:00,67.3,-36.4,30.18,NE,45,14.5,16.1,1,0.00,,,0.00,VISReader,2013-12-26 20:38:00,
2013-12-26 13:44:00,67.3,-36.4,30.18,ENE,67,11.4,15.5,1,0.00,,,0.00,VISReader,2013-12-26 20:44:00,
2013-12-26 13:49:00,67.3,-36.4,30.18,East,90,8.9,15.5,1,0.00,,,0.00,VISReader,2013-12-26 20:49:00,
2013-12-26 13:54:00,67.3,-36.4,30.18,NNW,337,13.0,13.5,1,0.00,,,0.00,VISReader,2013-12-26 20:54:00,
2013-12-26 21:28:00,55.0,5.1,30.18,SSE,157,4.2,4.2,13,0.00,,,0.00,VISReader,2013-12-27 04:28:00,
2013-12-26 21:32:00,54.7,6.5,30.18,SSE,157,2.7,4.2,14,0.00,,,0.00,VISReader,2013-12-27 04:32:00,
2013-12-26 21:37:00,54.3,6.2,30.18,NE,45,1.7,4.2,14,0.00,,,0.00,VISReader,2013-12-27 04:37:00,
2013-12-26 21:42:00,54.5,4.7,30.18,ENE,67,0.0,3.7,13,0.00,,,0.00,VISReader,2013-12-27 04:42:00,
2013-12-26 21:47:00,54.0,7.4,30.18,SSE,157,1.7,2.7,15,0.00,,,0.00,VISReader,2013-12-27 04:47:00,
2013-12-26 21:52:00,53.4,8.4,30.19,ESE,112,4.2,4.2,16,0.00,,,0.00,VISReader,2013-12-27 04:52:00,
2013-12-26 21:57:00,53.2,8.2,30.19,ENE,67,3.2,4.2,16,0.00,,,0.00,VISReader,2013-12-27 04:57:00,
2013-12-26 22:01:00,53.4,8.4,30.19,NE,45,3.2,4.2,16,0.00,,,0.00,VISReader,2013-12-27 05:01:00,
2013-12-26 22:02:00,53.4,8.4,30.19,ENE,67,3.2,4.2,16,0.00,,,0.00,VISReader,2013-12-27 05:02:00,
2013-12-26 22:03:00,53.6,7.1,30.19,ENE,67,2.7,4.2,15,0.00,,,0.00,VISReader,2013-12-27 05:03:00,
2013-12-26 22:05:00,53.6,7.1,30.19,ENE,67,3.2,4.2,15,0.00,,,0.00,VISReader,2013-12-27 05:05:00,
2013-12-26 22:10:00,54.0,7.4,30.19,NNE,22,2.7,3.7,15,0.00,,,0.00,VISReader,2013-12-27 05:10:00,
2013-12-26 22:15:00,54.3,7.7,30.19,NE,45,2.7,3.7,15,0.00,,,0.00,VISReader,2013-12-27 05:15:00,
2013-12-26 22:20:00,54.3,7.7,30.19,ESE,112,1.1,3.2,15,0.00,,,0.00,VISReader,2013-12-27 05:20:00,
2013-12-26 22:25:00,53.2,9.5,30.19,South,180,0.0,2.2,17,0.00,,,0.00,VISReader,2013-12-27 05:25:00,
2013-12-26 22:30:00,52.5,12.6,30.19,South,180,2.7,3.7,20,0.00,,,0.00,VISReader,2013-12-27 05:30:00,
2013-12-26 22:35:00,52.3,13.5,30.19,SE,135,3.2,4.2,21,0.00,,,0.00,VISReader,2013-12-27 05:35:00,
2013-12-26 22:41:00,52.5,12.6,30.19,ESE,112,2.7,4.2,20,0.00,,,0.00,VISReader,2013-12-27 05:41:00,
2013-12-26 22:46:00,52.5,14.8,30.19,ENE,67,1.7,4.2,22,0.00,,,0.00,VISReader,2013-12-27 05:46:00,
2013-12-26 22:51:00,52.2,13.5,30.19,NNE,22,2.2,2.7,21,0.00,,,0.00,VISReader,2013-12-27 05:51:00,
2013-12-26 22:56:00,52.5,11.5,30.19,North,360,3.7,3.7,19,0.00,,,0.00,VISReader,2013-12-27 05:56:00,
2013-12-26 23:01:00,53.4,8.4,30.19,NNE,22,4.2,4.7,16,0.00,,,0.00,VISReader,2013-12-27 06:01:00,
2013-12-26 23:06:00,54.0,7.4,30.19,NE,45,4.7,5.3,15,0.00,,,0.00,VISReader,2013-12-27 06:06:00,
2013-12-26 23:11:00,54.5,6.3,30.19,NNE,22,4.7,5.3,14,0.00,,,0.00,VISReader,2013-12-27 06:11:00,
2013-12-26 23:16:00,54.1,6.0,30.19,North,360,4.7,4.7,14,0.00,,,0.00,VISReader,2013-12-27 06:16:00,
2013-12-26 23:21:00,53.8,7.3,30.19,NNE,22,3.7,4.7,15,0.00,,,0.00,VISReader,2013-12-27 06:21:00,
2013-12-26 23:27:00,53.6,7.1,30.20,NNE,22,2.7,4.2,15,0.00,,,0.00,VISReader,2013-12-27 06:27:00,
2013-12-26 23:32:00,53.8,4.1,30.20,NNW,337,4.7,4.7,13,0.00,,,0.00,VISReader,2013-12-27 06:32:00,
2013-12-26 23:37:00,54.1,2.7,30.20,NNE,22,2.2,4.7,12,0.00,,,0.00,VISReader,2013-12-27 06:37:00,
2013-12-26 23:42:00,51.6,14.0,30.19,SSE,157,2.2,4.2,22,0.00,,,0.00,VISReader,2013-12-27 06:42:00,
2013-12-26 23:47:00,49.6,17.9,30.19,SSW,202,2.2,3.2,28,0.00,,,0.00,VISReader,2013-12-27 06:47:00,
2013-12-26 23:52:00,49.1,19.8,30.19,SW,225,0.0,2.7,31,0.00,,,0.00,VISReader,2013-12-27 06:52:00,
2013-12-26 23:57:00,48.7,18.7,30.19,WNW,292,0.0,1.7,30,0.00,,,0.00,VISReader,2013-12-27 06:57:00,